Regional Weather Roundup
Issued by NWS

Current Version | Previous Version | Text Only | Print | Product List | Glossary On
Versions: 1 2 3 4 5 6 7 8 9 10 11 12 13 14 15 16 17 18 19 20 21 22 23 24 25 26 27 28 29 30 31 32 33 34 35 36 37 38 39 40 41 42 43 44 45 46 47 48 49 50
000
ASHW40 PHFO 020043
RWRHI

WEATHER ROUNDUP FOR HAWAII
NATIONAL WEATHER SERVICE HONOLULU HI
200 PM HST MON SEP 01 2014

THIS IS AN AUTOMATED REPORT THAT HAS NOT BEEN QUALITY CONTROLLED.

NOTE..."FAIR" INDICATES FEW OR NO CLOUDS BELOW 12,000 FEET WITH NO
SIGNIFICANT WEATHER AND/OR OBSTRUCTIONS TO VISIBILITY.

* - THESE SITES REPORT LIMITED FIELDS

HIZ001>004-020100-
KAUAI-NIIHAU-

CITY           SKY/WX    TMP DP  RH WIND       PRES   REMARKS
LIHUE APT      SUNNY     84  71  65 NE6       30.01F
PORT ALLEN*      N/A     84 N/A N/A S6          N/A
POIPU*           N/A     88 N/A N/A SE2         N/A
PRINCEVILLE*   NOT AVBL
KOKOLE POINT*    N/A     84  68  58 MISG        N/A
MOLOAA DAIRY*  NOT AVBL
WAIMEA HTS*      N/A     82  68  61 S6G12       N/A
PUU OPAE*        N/A     75  63  64 CALM        N/A
PUU LUA*       NOT AVBL
MAKAHA RIDGE*  NOT AVBL
$$

HIZ005>011-020100-
OAHU-

CITY           SKY/WX    TMP DP  RH WIND       PRES   REMARKS
HONOLULU       MOSUNNY   86  72  62 S13       29.99F HX  92
KALAELOA       SUNNY     86  73  65 S9        30.01F HX  93
KANEOHE MCB    MOSUNNY   84  72  66 E10       30.00F HX  90
WHEELER FIELD  RAIN      79  70  73 E8        30.01S
BELLOWS*         N/A    N/A N/A N/A E12         N/A
KAHUKU*          N/A    N/A N/A N/A E7G13       N/A
WHEELER*       NOT AVBL
WAIANAE HARBOR NOT AVBL
DILLINGHAM*      N/A     90  73  58 W3G13       N/A  HX  98
KAHUKU TRN*      N/A     79  72  78 E6G18       N/A
KAWAILOA*      NOT AVBL
KII*             N/A     82  73  74 E13         N/A
MAKUA RANGE*     N/A     84  72  65 W7          N/A
OAHU FOREST NW   N/A     70  70 100 N1G8        N/A
SCHOFIELD BRK*   N/A     84  68  58 MISG        N/A
SCHOFIELD S*   NOT AVBL
WAIANAE VLY*     N/A     90  68  48 S8G18       N/A  HX  93
KUAOKALA*        N/A     81  70  69 CALM        N/A
HONOULIUULI*   NOT AVBL
MOKUOLOE IS*     N/A    N/A N/A N/A MISG        N/A
PALEHUA*         N/A     95  75  52 CALM        N/A  HX 107
WAIAWA PHB*    NOT AVBL
$$

HIZ012>013-020100-
MOLOKAI-

CITY           SKY/WX    TMP DP  RH WIND       PRES   REMARKS
MOLOKAI AIRPT  MOSUNNY   85  74  69 VRB6      30.01F HX  92
KALAUPAPA      NOT AVBL
MAKAPULAPAI*     N/A     88  70  55 E14G20      N/A  HX  92
MOLOKAI 1*       N/A     81  70  69 SE3G12      N/A
PUU ALII*        N/A     71  67  87 NW1         N/A
$$

HIZ016-020100-
KAHOOLAWE-

CITY           SKY/WX    TMP DP  RH WIND       PRES   REMARKS
KAHOOLAWE*       N/A     81 N/A N/A E10G16      N/A
HAKIOAWA*      NOT AVBL
HONOKANAIA*      N/A     88  71  57 W7G16     30.01F HX  94
KANELOA*         N/A     84  66  54 E15       29.24F
KEALIALALO*    NOT AVBL
LUA MAKIKA*    NOT AVBL
$$

HIZ014>015-020100-
LANAI-

CITY           SKY/WX    TMP DP  RH WIND       PRES   REMARKS
LANAI CITY     FAIR      85  71  62 NW12G17   30.06F HX  90
LANAI 1*         N/A     82  75  78 SW6G17      N/A
$$

HIZ017>028-020100-
MAUI-

CITY           SKY/WX    TMP DP  RH WIND       PRES   REMARKS
KAHULUI        MOSUNNY   93  69  45 NE13      29.98F HX  98
KAPALUA-W MAUI MOSUNNY   91  73  55 N15       29.99  HX 100
HANA AIRPORT   SUNNY     82  72  69 E9        30.03S
HANA*            N/A     84 N/A N/A E8G15       N/A
HALEAKALA SUMM   N/A     59  50  72 NW3         N/A
MAALAEA BAY*   NOT AVBL
HALEAKALA*     NOT AVBL
KAUPO GAP*       N/A     73  66  78 S6G15       N/A
KULA 1*          N/A     62  58  86 NW3G13      N/A
$$

HIZ023>026-020100-
BIG ISLAND OF HAWAII COAST AND LOWER SLOPES-

CITY           SKY/WX    TMP DP  RH WIND       PRES   REMARKS
KAILUA KONA    MOSUNNY   87  72  60 S15       29.96F HX  93
HILO           MOSUNNY   85  71  63 E12       29.99F HX  90
HONOKAA*       NOT AVBL
KAWAIHAE MWT*    N/A     84 N/A N/A W5          N/A
KAWAIHAE*        N/A     82 N/A N/A W6          N/A
SOUTH POINT*     N/A     79 N/A N/A E14G20      N/A
UPOLU AIRPORT*   N/A    N/A N/A N/A NE18G26     N/A
KAMUELA*       CLOUDY    77  64  65 NE12      30.10F
HAKALAU*         N/A     64  59  84 S3G10       N/A
KALOKO-HONOKO*   N/A     90  72  55 S9        29.96F HX  96
PALI 2*          N/A     70  70 100 SE7         N/A
KEALAKOMO*     NOT AVBL
KAUPULEHU*       N/A     91  63  38 W12G23      N/A  HX  92
KAPAPALA*        N/A     76  70  81 E5G12       N/A
LOWER KAHUKU*  NOT AVBL
PUHE CS*       NOT AVBL
PUHO CS*         N/A     87  71  57 W3G9        N/A  HX  92
PTA KEAMUKU*     N/A     77  66  69 W10         N/A
WAIKOLOA*        N/A     88  68  51 W12G18      N/A  HX  91
$$

HIZ027>028-020100-
BIG ISLAND OF HAWAII INTERIOR AND SUMMMITS-

CITY           SKY/WX    TMP DP  RH WIND       PRES   REMARKS
BRADSHAW FIELD MOSUNNY   73  58  58 W15G25    30.35F
MK VISITOR CEN NOT AVBL
MAUNA KEA*       N/A     54   0  11 W6          N/A
MAUNA LOA*       N/A     52  41  66 MISG        N/A
MAUNA LOA 1*   NOT AVBL
PTA KIPUKA*      N/A     72  61  68 N8G17       N/A
PTA RANGE 17*    N/A     72  59  64 NW12G18     N/A
PTA WEST*        N/A     75  64  69 NW12G18     N/A
NENE CABIN*    NOT AVBL
AHUMOA*          N/A     63  59  88 NW8         N/A
PTA PORTABLE*  NOT AVBL
PUU MALI*      NOT AVBL
$$

HIC003-020100-
NORTHWEST ISLANDS-

CITY           SKY/WX    TMP DP  RH WIND       PRES   REMARKS
MIDWAY ISLAND  SUNNY     90  72  55 SW8       30.02F HX  96
MIDWAY NOS*    NOT AVBL
FRENCH FRIGATE NOT AVBL
$$

PHZ110>124-180-020100-
BUOY REPORTS

STATION/POSITION TIME  TEMP    WIND        PRES    WAVE   SWELL
                       AIR SEA DIR/SP/G            HT/PER HT/DIR
                 (UTC) (F)     (DEG/KT/KT) (MB)    (FT/S) (FT/D)
BUOY 51001       NOT AVBL
BUOY 51101       NOT AVBL
BUOY 51100       0000   79 80  110/ 12/ 14 1017.2F
BUOY 51003       0000   81 82  110/ 12/ 14 1015.1F   6/13   5
BUOY 51004       NOT AVBL
BARBERS PT BUOY  NOT AVBL
WAIMEA BAY BUOY  0000      82                N/A     3/ 8   2/360
KAILUA BAY BUOY  0000      82                N/A     4/11   2/ 90
LANAI BUOY       NOT AVBL
BARBERS PT 2     0000      83                N/A     3/13   3/200
PAUWELA MAUI     0000      81                N/A     5/10   2/ 80
HILO             NOT AVBL
KANEOHE BAY BUOY 0000      82                N/A     3/11   2/ 70
HANALEI KAUAI    NOT AVBL
KAHULUI HARBOR   0000   81 83   50/ 13/ 18 1015.2F
HONOLULU HARBOR  0000   83     200/  5/  8 1015.9F
KILO NALU        NOT AVBL
HILO HARBOR      0000   83      50/  7/ 12 1015.1F
MOKUOLOE         0000      84              1015.9F
NAWILIWILI       0000      83                N/A
WHOTS BUOY       NOT AVBL
BUOY 51028       NOT AVBL
$$

......................KEY........................................
  SKY/WX - SKY CONDITIONS/PRESENT WEATHER
  TMP    - TEMPERATURE IN FAHRENHEIT
  DWPT   - DEWPOINT IN FAHRENHEIT
  RH     - RELATIVE HUMIDITY IN PERCENT
  WIND   - DIRECTION AND SPEED /MPH FOR ISLANDS...KTS FOR BUOYS/
  PRES   - MEAN SEA LEVEL PRESSURE IN INCHES OF HG
  VSB    - VISIBILITY IN MILES
  HX     - HEAT INDEX
  WCI    - WIND CHILL INDEX
  VRB    - VARIABLE WIND DIRECTION
  N/A    - NOT AVAILABLE


USA.gov is the U.S. government's official web portal to all federal, state and local government web resources and services.